Temperature
24 24 24 24 23 24 23 23 23 23 23 23 23 23 23 23 22 22 22 21 20 20 19 19 19 19 19 18 18 18 17 17 17 17 16 16 16 16 16 16 16 16 16 16
23 24 24 24 24 24 23 24 24 23 23 24 24 24 23 23 22 22 21 21 20 20 19 19 19 19 19 18 18 18 17 17 17 17 16 16 16 16 16 16 16 15 15 15
22 23 23 22 23 23 23 24 24 23 23 24 23 23 23 23 22 22 21 21 20 20 19 19 19 19 19 18 18 18 17 17 17 17 16 16 16 16 16 16 15 15 15 15
22 22 21 23 25 24 24 24 24 24 24 24 24 23 23 22 22 21 21 20 20 20 19 19 19 19 19 18 18 18 17 17 17 17 16 16 16 16 15 15 15 15 15 15
21 21 21 23 24 24 23 23 24 24 24 24 23 23 22 22 21 21 21 20 20 20 19 19 19 19 18 18 18 18 17 17 17 16 16 16 16 16 15 15 15 15 15 15
20 20 20 22 24 24 23 22 23 23 23 23 23 21 21 21 21 21 20 20 19 19 19 19 19 19 18 18 18 18 17 17 17 16 16 16 16 15 15 15 15 15 15 15
20 20 21 23 23 23 21 21 22 22 22 22 22 21 21 20 20 20 20 19 19 19 19 19 19 19 18 18 18 18 17 17 16 16 16 16 15 15 15 15 15 15 14 14
20 20 20 22 22 22 21 22 22 21 21 21 20 20 20 20 20 20 20 19 19 19 19 19 18 18 18 18 18 17 17 17 16 16 16 15 15 15 15 15 15 14 14 14
21 20 21 21 21 21 21 21 21 20 20 20 19 19 19 19 19 19 19 19 19 19 18 18 18 18 18 18 18 17 17 16 16 16 15 15 15 15 15 14 14 14 14 14
21 21 21 21 21 20 20 20 20 19 19 19 19 19 19 19 19 19 19 18 18 18 18 18 17 17 17 17 17 17 16 16 16 15 15 15 15 15 14 14 14 14 13 13
20 21 21 20 20 20 20 19 19 19 19 19 18 18 18 18 18 18 18 18 18 18 17 17 17 17 17 17 17 16 16 16 15 15 15 14 14 14 14 14 14 14 13 13
19 20 20 20 19 19 19 19 18 18 18 18 18 18 18 18 18 18 17 17 17 17 17 17 16 16 16 16 16 16 16 15 15 15 14 14 14 14 13 13 13 13 13 13
19 19 19 19 19 19 18 18 18 18 17 17 17 17 17 17 17 17 17 17 17 17 16 16 16 16 16 16 16 16 15 15 15 14 14 14 14 13 13 13 13 13 12 12
18 18 18 18 18 18 18 17 17 17 17 17 17 16 16 16 16 16 16 16 16 16 16 16 15 15 15 15 15 15 15 15 14 14 14 14 13 13 13 13 12 12 12 11
18 18 18 17 17 17 17 17 16 16 16 16 16 16 16 16 15 15 15 15 15 15 15 15 15 15 15 15 15 14 14 14 14 14 13 13 13 12 12 12 12 12 11 11
17 17 17 17 16 16 16 16 16 15 15 15 15 15 15 15 15 15 15 15 15 15 15 15 14 14 14 14 14 14 14 14 13 13 13 13 12 12 12 11 11 11 11 11
16 16 16 16 15 15 15 15 15 15 15 15 15 14 14 14 14 14 14 14 14 14 14 14 14 14 14 14 14 14 14 13 13 13 13 12 12 12 11 11 11 11 11 10
15 15 15 15 15 15 15 15 14 14 14 14 14 14 14 13 13 13 13 13 13 13 13 13 13 13 13 13 13 13 13 13 13 12 12 12 12 11 11 11 10 10 10 10
14 14 14 14 14 14 14 14 14 14 14 13 13 13 13 13 13 13 12 12 13 13 13 13 13 13 13 13 13 12 12 12 12 12 12 11 11 11 11 10 10 10 10 9
14 13 13 13 13 13 13 13 13 13 13 13 13 12 12 12 12 12 12 12 12 12 12 12 12 12 12 12 12 12 12 12 11 11 11 11 11 10 10 10 10 9 9 9
13 13 13 13 12 12 12 12 12 12 12 12 12 12 11 11 11 11 11 11 11 11 11 11 12 12 12 12 11 11 11 11 11 10 10 10 10 10 10 9 9 9 8 8
12 12 12 12 12 11 11 11 12 11 11 11 11 11 11 10 10 10 11 11 11 11 11 11 11 11 11 11 11 11 10 10 10 10 10 9 9 9 9 9 8 8 8 7
11 11 11 11 11 11 11 11 11 11 11 10 10 10 10 10 10 10 10 10 10 10 10 10 10 10 10 10 10 10 10 10 9 9 9 9 9 8 8 8 8 7 7 7
11 10 10 10 10 10 10 10 10 10 10 10 10 10 10 9 9 9 9 10 10 10 10 10 10 10 10 9 9 9 9 9 9 8 8 8 8 7 7 7 7 7 6 6
10 10 9 9 9 9 9 9 9 9 9 9 9 9 9 9 9 9 9 9 9 9 9 9 9 9 9 9 9 8 8 8 8 8 8 7 7 7 6 6 6 6 5 5
9 9 9 9 9 9 9 9 9 8 8 8 8 8 8 8 8 8 8 8 9 9 9 8 8 8 8 8 8 8 8 7 7 7 7 7 6 6 6 5 5 5 5 5
8 8 8 8 8 8 8 8 8 8 8 8 8 8 8 8 8 8 8 8 8 8 8 8 8 8 7 7 7 7 7 7 6 6 6 6 6 5 5 5 5 4 4 4
Wind_Speed
7 6 5 5 6 7 8 7 6 4 2 1 2 3 4 5 5 6 6 7 7 7 6 6 6 6 7 7 7 7 6 5 4 5 5 4 4 3 2 2 2 1 2 3
9 8 7 8 7 8 8 7 7 5 3 2 1 2 3 4 5 5 6 6 7 7 7 6 6 6 6 8 8 7 7 6 5 4 4 4 5 4 3 3 2 1 2 3
8 7 8 9 8 7 7 7 5 5 3 1 1 0 2 3 4 5 6 5 6 6 6 6 6 6 6 6 6 7 7 6 6 5 5 4 4 4 4 3 2 2 2 3
7 7 8 4 2 4 6 5 5 4 2 2 1 0 2 3 4 4 5 6 6 5 5 5 5 5 5 6 6 6 6 7 6 6 6 5 4 4 4 4 3 3 3 3
6 7 7 4 2 2 4 5 4 4 3 2 1 1 2 3 3 4 4 5 4 4 5 5 4 4 5 5 5 5 5 7 7 6 6 6 5 5 4 3 3 3 3 3
7 7 6 2 1 1 3 5 3 3 1 1 2 2 1 3 3 4 4 4 4 3 4 4 4 4 5 5 5 5 5 5 6 6 6 6 5 4 4 4 4 4 3 3
9 8 5 1 2 2 3 1 3 2 2 1 0 1 1 2 2 4 5 5 4 4 3 3 4 5 5 5 6 6 5 5 5 6 6 5 4 4 4 4 4 4 4 3
8 8 5 1 2 1 1 2 3 4 3 2 3 3 2 2 2 4 5 5 4 4 3 3 4 4 4 3 5 6 6 6 5 5 5 4 4 3 4 4 4 4 3 3
4 3 1 1 1 2 3 3 4 4 4 3 2 2 1 1 2 3 4 5 4 4 4 3 3 4 4 4 5 6 7 6 6 5 5 5 5 4 3 3 3 3 3 2
5 3 2 1 1 2 2 2 4 3 2 2 1 2 1 1 2 3 3 4 4 4 4 3 3 4 4 4 5 6 7 7 6 6 5 5 4 4 3 3 3 3 3 3
7 4 3 3 1 0 1 1 2 2 2 2 1 1 2 1 1 3 3 3 4 4 4 4 4 4 4 4 5 6 6 6 6 6 6 5 5 3 4 3 3 4 3 3
5 4 3 2 1 1 0 0 0 1 2 3 2 1 1 0 1 3 3 3 4 4 4 4 4 4 4 3 4 5 6 6 5 5 5 6 5 5 6 5 6 6 6 5
4 3 3 2 2 1 1 1 1 1 1 2 2 1 1 1 1 2 3 3 3 4 4 4 4 3 4 4 4 4 5 6 5 5 5 5 5 5 4 4 6 5 5 6
2 2 3 2 1 1 1 1 1 1 1 1 1 1 1 2 2 3 2 2 3 3 4 4 4 4 4 4 3 4 5 6 6 5 5 5 5 5 5 5 4 2 2 5
3 4 4 2 1 0 0 0 0 1 1 1 2 2 2 2 2 2 2 2 3 3 4 4 3 3 4 4 4 4 4 4 4 5 4 4 5 5 5 5 4 3 3 2
3 3 2 2 2 2 2 1 1 0 1 1 1 2 2 2 2 2 2 3 3 3 3 4 3 3 4 4 4 4 4 5 5 4 4 4 4 4 4 4 4 4 3 3
4 4 4 4 4 3 3 2 2 1 0 1 1 2 2 2 2 2 2 2 3 3 3 3 3 3 3 4 4 4 4 5 6 4 4 4 4 4 4 4 4 4 3 4
3 3 4 3 4 3 2 2 2 2 1 1 2 2 2 2 2 2 3 3 4 4 3 3 3 3 3 3 2 3 4 4 4 4 3 4 4 3 3 4 4 4 3 4
3 2 2 2 1 1 1 1 1 1 1 2 2 2 2 2 2 3 3 3 3 3 2 3 4 4 3 2 2 2 3 4 4 3 3 4 4 3 3 3 3 3 4 4
3 2 2 2 1 1 1 1 1 2 2 2 3 3 2 2 2 3 3 3 2 1 2 3 3 3 2 2 2 2 3 3 4 4 3 3 3 3 3 3 3 4 4 4
3 2 2 2 1 1 1 1 2 2 3 3 3 3 3 3 3 3 3 2 2 2 3 5 3 2 2 2 3 2 3 3 3 3 3 3 3 3 3 3 3 3 3 3
3 3 2 1 1 1 1 1 1 2 3 3 3 3 3 3 3 3 2 2 2 2 2 2 2 2 3 3 2 2 3 3 3 3 3 3 3 3 3 3 3 3 3 3
2 2 2 2 2 2 1 1 1 2 3 3 3 3 3 2 2 2 2 2 2 3 3 2 2 4 4 3 3 3 3 3 3 3 3 3 3 3 3 3 3 3 3 3
2 2 2 1 1 2 1 1 1 2 3 2 2 2 2 2 2 2 2 4 4 4 3 3 4 4 4 2 3 3 3 3 3 3 3 3 3 3 3 3 3 3 3 3
2 2 2 2 1 1 1 1 1 2 2 2 3 3 2 2 2 3 3 4 4 4 3 3 4 4 3 2 2 3 3 3 4 3 3 3 3 3 3 3 3 3 3 3
1 1 1 1 1 1 1 1 2 2 2 3 2 2 2 3 4 3 3 3 3 3 3 2 3 3 2 2 2 3 3 3 4 4 3 3 3 3 3 3 3 3 3 3
1 1 1 1 1 1 1 1 1 1 2 2 3 3 3 3 3 3 3 3 3 3 2 2 3 3 2 2 3 3 3 3 3 3 3 3 3 3 3 3 3 3 2 3
Wind_Direction
282 281 270 254 248 251 258 264 267 268 267 222 134 139 141 147 146 152 158 158 154 159 161 165 174 178 169 164 163 164 161 165 172 162 153 154 145 142 132 107 94 102 113 107
272 265 265 264 253 251 257 263 263 266 273 298 169 144 149 148 151 157 159 163 161 164 163 174 178 178 171 169 171 166 164 166 166 157 151 151 148 153 147 133 117 92 104 109
267 261 261 256 244 245 249 250 255 259 265 291 235 158 125 151 158 165 162 158 163 168 168 182 186 183 174 172 167 167 167 166 159 155 151 150 152 152 152 149 140 137 127 124
269 265 251 245 209 237 253 249 257 261 274 270 238 184 164 154 161 166 160 164 168 175 170 179 183 173 167 167 171 170 167 163 159 160 160 157 156 159 163 162 162 168 167 151
261 261 256 242 218 243 258 256 276 266 244 234 218 216 157 118 133 151 156 153 163 170 161 171 172 158 156 160 163 160 164 164 160 159 160 163 168 170 171 162 161 168 168 157
252 255 251 250 109 84 283 257 296 308 276 199 205 221 163 113 121 142 142 143 151 152 151 160 156 149 154 160 157 157 157 160 157 157 160 165 170 172 164 159 167 165 157 160
246 251 254 252 123 168 237 309 7 4 11 31 79 4 80 107 116 139 137 136 136 143 145 148 148 149 158 161 167 161 151 147 144 149 154 157 165 161 154 152 152 154 153 153
236 241 241 104 155 192 7 30 16 20 21 29 43 51 54 103 118 130 130 130 135 136 130 129 138 144 151 156 150 141 138 138 138 141 148 148 142 143 143 144 148 151 144 141
236 229 108 92 60 27 4 6 8 16 26 39 47 41 51 117 149 146 137 139 136 131 129 129 132 132 139 130 127 132 133 135 134 135 131 129 133 136 135 138 148 157 147 141
240 227 196 211 83 51 355 355 1 4 8 35 43 10 345 305 163 135 130 134 135 133 134 132 128 121 122 125 127 133 139 144 142 136 124 116 116 124 129 142 153 155 151 146
244 241 232 223 204 105 355 354 360 349 348 354 1 329 313 290 153 136 136 137 137 141 140 137 128 121 121 127 138 144 148 145 142 136 132 121 112 109 125 119 144 146 142 139
243 248 260 234 204 180 212 301 70 345 343 339 320 285 290 324 119 135 137 136 139 143 142 139 131 128 126 129 139 146 148 143 137 136 134 134 129 106 77 93 104 110 116 123
257 279 287 287 315 322 264 288 281 299 328 328 323 339 22 62 105 118 121 127 136 140 143 142 139 138 133 132 140 145 147 144 141 142 143 143 145 145 133 92 81 91 109 118
245 259 265 261 274 3 332 299 311 302 308 324 333 54 47 65 86 102 120 132 127 129 129 132 136 133 129 135 134 142 146 147 147 150 152 154 157 156 151 146 137 116 116 134
249 257 262 245 234 222 167 202 280 320 349 1 24 65 71 69 83 105 102 114 118 120 124 128 123 117 116 119 123 132 134 140 142 143 147 151 152 152 152 151 147 139 119 119
255 245 241 234 226 239 229 209 180 166 39 34 52 73 76 61 72 98 102 113 121 124 127 126 121 118 124 125 126 130 133 138 142 143 145 146 151 152 154 153 152 152 154 150
226 224 222 228 227 227 221 207 197 173 182 166 119 96 96 88 86 100 108 120 121 118 119 122 116 111 115 129 138 141 140 144 144 143 148 152 155 160 159 158 161 160 161 151
238 227 226 229 223 218 205 186 173 176 189 166 136 129 126 134 137 129 123 115 108 98 91 100 101 104 103 111 131 135 137 139 145 151 152 155 157 160 160 158 158 155 144 136
213 221 219 219 237 222 189 171 155 161 159 150 146 140 135 138 131 126 124 125 123 123 115 104 112 119 116 114 118 125 136 144 150 155 154 156 158 158 155 152 148 144 136 131
182 184 189 186 209 205 178 177 162 155 150 146 140 136 139 139 134 129 120 111 108 128 135 120 124 125 120 125 123 133 139 146 151 150 147 146 148 143 133 130 133 131 129 131
176 177 175 174 177 172 171 177 166 160 151 145 144 146 138 123 116 121 122 117 88 72 101 113 121 127 129 124 127 124 128 130 133 136 137 137 137 132 127 128 128 126 125 127
173 170 165 154 145 149 136 141 147 145 139 137 134 133 127 126 129 123 115 120 115 101 105 110 120 114 110 114 125 119 115 115 117 117 121 126 131 133 130 123 121 120 121 123
171 162 160 163 159 145 131 142 150 146 137 140 143 142 138 138 139 142 140 119 114 107 103 108 117 114 110 119 129 123 116 115 117 119 119 117 118 122 123 120 118 116 119 119
152 147 159 159 141 145 164 158 148 140 135 133 133 133 134 135 123 111 115 121 109 106 108 123 122 119 117 119 120 119 121 121 119 119 116 115 114 115 117 122 122 121 122 119
149 141 146 149 157 166 169 164 150 135 140 141 140 137 133 125 126 119 111 114 119 115 112 125 128 126 124 118 123 121 120 121 122 121 119 122 121 122 123 124 126 129 127 123
142 150 156 166 183 192 188 178 169 163 152 141 130 120 117 116 119 122 126 127 128 127 125 131 136 132 117 110 110 111 113 117 116 116 118 118 119 122 124 121 117 118 119 115
156 151 140 138 160 201 204 194 172 168 167 160 150 142 140 138 137 142 141 143 143 140 139 142 140 135 129 121 114 112 110 107 107 109 110 111 115 119 120 118 116 112 110 115
Height
1505 1503 1504 1507 1509 1509 1511 1511 1516 1514 1512 1510 1508 1510 1512 1513 1516 1518 1521 1523 1525 1528 1530 1532 1535 1537 1539 1540 1542 1544 1546 1548 1549 1551 1553 1554 1556 1557 1558 1559 1561 1562 1562 1563
1508 1503 1503 1506 1505 1506 1507 1507 1508 1509 1510 1506 1507 1508 1510 1512 1514 1517 1519 1522 1524 1526 1529 1531 1533 1534 1536 1538 1540 1542 1544 1546 1548 1549 1551 1552 1554 1555 1556 1557 1559 1560 1561 1561
1513 1504 1505 1511 1504 1504 1505 1503 1506 1510 1508 1505 1507 1508 1509 1511 1513 1515 1518 1520 1522 1524 1527 1529 1531 1532 1534 1536 1539 1541 1542 1544 1546 1547 1549 1550 1552 1553 1554 1556 1557 1558 1559 1559
1513 1512 1522 1506 1495 1498 1500 1501 1501 1502 1503 1504 1506 1507 1508 1510 1512 1514 1516 1518 1520 1523 1525 1527 1529 1531 1532 1534 1537 1538 1540 1541 1543 1545 1546 1548 1550 1551 1552 1554 1555 1556 1557 1557
1515 1517 1511 1502 1496 1497 1501 1502 1499 1500 1501 1503 1505 1506 1507 1509 1510 1512 1515 1516 1519 1521 1523 1525 1527 1528 1530 1532 1534 1536 1537 1539 1540 1542 1544 1546 1547 1549 1550 1551 1553 1554 1555 1555
1514 1519 1519 1505 1496 1496 1501 1505 1499 1499 1500 1502 1503 1507 1508 1508 1509 1511 1513 1515 1517 1519 1521 1523 1524 1526 1528 1530 1532 1533 1535 1537 1538 1540 1541 1543 1545 1547 1548 1549 1550 1551 1552 1553
1512 1514 1507 1498 1496 1498 1510 1509 1500 1500 1501 1502 1504 1507 1508 1507 1508 1510 1512 1514 1516 1518 1519 1521 1522 1524 1526 1528 1529 1531 1533 1534 1536 1538 1540 1541 1543 1545 1546 1547 1548 1549 1550 1551
1508 1513 1511 1498 1497 1501 1504 1501 1501 1501 1502 1503 1503 1505 1506 1507 1508 1509 1510 1512 1514 1516 1517 1519 1520 1522 1524 1526 1527 1529 1531 1532 1534 1536 1538 1539 1541 1542 1544 1545 1546 1547 1548 1549
1500 1503 1498 1498 1498 1500 1501 1501 1502 1502 1502 1503 1503 1504 1505 1506 1507 1508 1509 1511 1513 1514 1516 1517 1519 1520 1522 1524 1525 1527 1529 1530 1532 1534 1535 1537 1538 1540 1541 1542 1543 1545 1546 1546
1495 1495 1496 1498 1498 1500 1501 1501 1502 1502 1503 1503 1503 1503 1504 1505 1506 1506 1508 1510 1511 1513 1514 1516 1517 1519 1520 1522 1523 1525 1526 1528 1530 1532 1533 1535 1536 1537 1539 1540 1541 1542 1543 1544
1493 1494 1495 1496 1497 1499 1500 1500 1501 1502 1502 1502 1502 1502 1503 1503 1504 1505 1507 1508 1510 1511 1512 1514 1516 1517 1518 1520 1521 1523 1524 1526 1528 1529 1531 1532 1534 1535 1536 1538 1539 1540 1541 1542
1493 1493 1494 1495 1496 1497 1498 1499 1500 1501 1501 1501 1501 1501 1501 1502 1503 1504 1505 1507 1508 1510 1511 1513 1514 1515 1516 1518 1519 1521 1523 1524 1526 1528 1529 1531 1532 1533 1535 1536 1537 1538 1540 1541
1490 1491 1492 1493 1494 1495 1496 1497 1498 1499 1499 1499 1499 1499 1500 1500 1501 1502 1504 1505 1507 1508 1509 1511 1512 1514 1515 1516 1517 1519 1520 1522 1523 1525 1527 1529 1530 1531 1532 1534 1535 1536 1537 1538
1488 1490 1491 1492 1493 1494 1495 1496 1496 1497 1497 1497 1497 1497 1498 1498 1499 1500 1502 1503 1505 1506 1508 1509 1510 1512 1513 1514 1515 1516 1518 1520 1521 1523 1525 1526 1528 1529 1530 1531 1532 1533 1535 1536
1486 1487 1489 1490 1491 1492 1493 1494 1495 1495 1496 1496 1496 1496 1496 1497 1498 1499 1500 1501 1503 1504 1506 1507 1508 1510 1511 1512 1513 1514 1516 1517 1519 1521 1523 1524 1526 1527 1528 1529 1530 1531 1532 1533
1483 1485 1486 1488 1489 1490 1491 1492 1493 1494 1494 1494 1494 1495 1495 1496 1496 1497 1498 1500 1501 1502 1503 1505 1506 1507 1509 1510 1511 1512 1514 1515 1517 1519 1520 1522 1524 1525 1526 1527 1528 1528 1529 1530
1480 1482 1484 1485 1487 1488 1489 1490 1491 1491 1492 1492 1493 1493 1494 1494 1495 1496 1497 1498 1499 1500 1501 1503 1504 1506 1507 1508 1509 1510 1511 1513 1515 1516 1518 1519 1521 1522 1523 1525 1525 1526 1527 1528
1477 1479 1481 1482 1484 1485 1486 1488 1488 1489 1490 1490 1491 1491 1492 1492 1493 1494 1495 1497 1498 1499 1500 1501 1502 1503 1505 1506 1507 1508 1509 1510 1512 1514 1515 1517 1518 1520 1521 1522 1523 1524 1525 1526
1475 1477 1479 1480 1482 1483 1484 1485 1486 1487 1487 1488 1489 1490 1490 1491 1492 1493 1494 1495 1496 1497 1498 1499 1500 1501 1502 1504 1505 1506 1507 1508 1510 1511 1513 1514 1516 1517 1518 1519 1520 1521 1522 1522
1473 1475 1476 1478 1479 1480 1482 1483 1484 1485 1485 1486 1486 1487 1489 1490 1490 1492 1493 1493 1494 1495 1496 1497 1498 1499 1500 1501 1503 1504 1505 1506 1507 1509 1510 1511 1513 1514 1515 1516 1517 1518 1519 1519
1471 1473 1474 1475 1477 1478 1479 1480 1481 1482 1483 1483 1484 1485 1486 1487 1489 1490 1490 1491 1492 1493 1494 1495 1496 1497 1498 1499 1500 1501 1502 1503 1504 1506 1507 1509 1510 1511 1512 1513 1514 1515 1515 1516
1469 1471 1472 1473 1474 1476 1477 1478 1479 1480 1481 1482 1483 1484 1485 1485 1487 1487 1488 1489 1490 1491 1492 1492 1493 1494 1495 1496 1497 1498 1499 1501 1502 1503 1504 1506 1507 1508 1509 1510 1511 1511 1512 1513
1467 1468 1470 1471 1473 1474 1475 1476 1477 1478 1479 1479 1480 1481 1482 1483 1484 1485 1486 1487 1488 1489 1489 1490 1491 1492 1493 1494 1495 1496 1497 1498 1499 1500 1501 1503 1504 1505 1506 1507 1508 1509 1509 1510
1465 1467 1468 1469 1470 1471 1472 1474 1475 1476 1476 1477 1478 1479 1480 1481 1482 1483 1484 1485 1486 1487 1487 1488 1489 1490 1491 1492 1493 1494 1494 1495 1497 1498 1499 1500 1501 1502 1503 1504 1505 1506 1506 1507
1464 1465 1466 1467 1468 1469 1470 1471 1472 1473 1474 1475 1476 1477 1478 1479 1479 1480 1481 1482 1483 1485 1485 1486 1487 1488 1489 1490 1491 1492 1492 1493 1494 1495 1496 1497 1498 1499 1500 1501 1502 1503 1503 1504
1463 1464 1464 1465 1466 1467 1468 1469 1470 1471 1471 1472 1473 1474 1475 1476 1477 1478 1479 1480 1481 1482 1483 1484 1485 1486 1487 1488 1488 1489 1490 1491 1491 1492 1493 1494 1495 1496 1497 1498 1499 1500 1501 1501
1461 1462 1462 1463 1464 1465 1466 1467 1467 1468 1469 1469 1470 1471 1473 1474 1475 1476 1476 1477 1478 1480 1481 1481 1482 1483 1484 1485 1486 1487 1488 1488 1489 1490 1491 1492 1492 1493 1494 1495 1496 1497 1498 1498